Location: Newark
(45.7655°N, 4.8796°E)
Time: 19:52:49
(UTC+00:00)

ISS - Visible Passes

Search period start: 11 November 2019 00:00
Search period end: 21 November 2019 00:00
Orbit: 412 x 421 km, 51.6° (Epoch: 12 November)

Date Brightness Start Highest point End Pass type
(mag) Time Alt. Az. Time Alt. Az. Time Alt. Az.
11 Nov -3.5 04:47:39 50° SW 04:47:40 50° SW 04:50:57 10° SE visible
12 Nov -1.2 04:01:35 20° SE 04:01:35 20° SE 04:02:43 10° SE visible
12 Nov -1.6 05:34:31 11° WSW 05:35:36 13° SW 05:37:14 10° SSW visible
13 Nov -1.7 04:48:32 18° SSW 04:48:32 18° SSW 04:50:02 10° S visible
